Weather in Peski

Russia / Moscow Oblast     55°12′51″N   38°46′09″E
В апреле 2022 года жителям России запретили посещать сайт meteo.paraplan.net по решению Генеральной прокуратуры. Аудитория сайта уменьшилась в 10 раз. Владельцы сайта не видят смысла в поддержке погодного сервера в таких условиях. Сайт будет закрыт в октябре.
temp.,
°C
wind,
m/s
gust,
m/s
humid.,
%
clouds,
%
prec.,
mm/h
press.,
hPa
HPBL,
m
4 october, tue
tue400:00+10sse8168416 0.1 1005859
03:00+9sse816845 0.1 1006825
06:00+9sse7158621 0.0 1007770
09:00+10sse816789 0.0 10081211
12:00+14s9176819 0.1 10081758
15:00+9wsw3684100 1.3 1010383
18:00+9s41183100 0.8 1011740
21:00+8s51285100 0.9 1011663
5 october, wed
wed500:00+8s61084100 0.1 10111151
03:00+7s5108596 0.3 1011793
06:00+7s4890100 0.4 10111076
09:00+7ssw6989100 2.3 1011978
12:00+7sw4787100 0.3 1013975
15:00+7w478486 0.4 1014735
18:00+6w4784100 0.2 1015501
21:00+6w4887100 0.4 1016546
6 october, thu
thu600:00+5w379299 0.1 1016818
03:00+5w389491 0.1 1017310
06:00+5w369452 0.0 1018228
09:00+6w35865 0.0 1018268
12:00+10w34665 0.0 1018857
15:00+11wsw346899 0.0 1018930
18:00+8ssw339296 0.0 101860
21:00+9ssw389694 0.0 1018271
7 october, fri
fri700:00+8sw4119692 0.0 1017259
03:00+8wsw4119613 0.0 1016300
06:00+9w5139648 0.0 1017428
09:00+11wnw6118510 0.0 1019711
12:00+12wnw71071100 0.0 10211117
15:00+12wnw61065100 0.0 10221273
18:00+9w49820 0.0 1023219
21:00+7w410920 0.0 1025249
8 october, sat
sat800:00+6w39940 0.0 1025173
03:00+6wsw36950 0.0 1025122
06:00+5sw36955 0.0 1026119
09:00+9sw47845 0.0 1026260
12:00+13sw56685 0.0 1024735
15:00+14sw57625 0.0 1022985
18:00+10ssw488351 0.0 1021155
21:00+9ssw412876 0.0 1021284